QPF
0.01 0.02 0.02 0.03 0.04 0.07 0.10 0.10 0.09 0.12 0.09 0.07 0.07 0.06 0.06 0.07 0.05 0.04 0.03 0.04 0.04 0.05 0.08 0.11 0.11 0.10 0.16 0.17 0.11 0.10 0.12 0.09 0.07 0.07 0.06 0.06 0.06 0.04 0.04 0.04 0.03 0.03 0.03
0.02 0.02 0.03 0.05 0.05 0.08 0.11 0.10 0.09 0.15 0.12 0.09 0.10 0.12 0.10 0.09 0.06 0.03 0.03 0.03 0.03 0.04 0.06 0.09 0.12 0.13 0.15 0.14 0.15 0.17 0.15 0.10 0.09 0.08 0.08 0.07 0.07 0.05 0.04 0.04 0.04 0.04 0.04
0.03 0.03 0.03 0.05 0.07 0.10 0.13 0.12 0.10 0.14 0.18 0.16 0.15 0.14 0.11 0.07 0.04 0.04 0.04 0.04 0.03 0.04 0.05 0.07 0.09 0.09 0.11 0.13 0.15 0.16 0.14 0.11 0.10 0.09 0.08 0.07 0.06 0.05 0.04 0.04 0.04 0.04 0.04
0.03 0.03 0.03 0.05 0.08 0.12 0.16 0.16 0.13 0.13 0.16 0.16 0.15 0.15 0.11 0.06 0.04 0.05 0.04 0.03 0.03 0.03 0.04 0.06 0.07 0.06 0.07 0.08 0.11 0.11 0.12 0.12 0.12 0.12 0.10 0.08 0.07 0.06 0.05 0.05 0.05 0.04 0.04
0.02 0.03 0.04 0.05 0.07 0.09 0.13 0.14 0.14 0.13 0.12 0.12 0.11 0.09 0.09 0.07 0.05 0.04 0.03 0.03 0.03 0.02 0.02 0.03 0.05 0.05 0.06 0.08 0.08 0.09 0.09 0.09 0.11 0.11 0.11 0.11 0.07 0.05 0.05 0.05 0.06 0.06 0.05
0.01 0.02 0.02 0.03 0.05 0.05 0.08 0.10 0.11 0.11 0.10 0.10 0.08 0.06 0.06 0.06 0.05 0.04 0.03 0.03 0.02 0.02 0.02 0.03 0.04 0.05 0.05 0.06 0.06 0.09 0.10 0.10 0.11 0.12 0.14 0.11 0.07 0.06 0.05 0.05 0.05 0.05 0.05
0.01 0.01 0.01 0.01 0.03 0.04 0.04 0.07 0.09 0.12 0.12 0.11 0.10 0.07 0.06 0.05 0.04 0.04 0.03 0.04 0.03 0.02 0.02 0.03 0.04 0.05 0.05 0.05 0.06 0.08 0.09 0.12 0.15 0.12 0.13 0.15 0.13 0.09 0.06 0.06 0.05 0.04 0.05
0.01 0.01 0.01 0.01 0.03 0.05 0.05 0.08 0.11 0.13 0.13 0.12 0.11 0.09 0.08 0.06 0.04 0.03 0.03 0.02 0.02 0.03 0.03 0.03 0.03 0.03 0.03 0.03 0.04 0.05 0.06 0.06 0.08 0.09 0.09 0.10 0.13 0.15 0.12 0.09 0.06 0.05 0.05
0.02 0.02 0.02 0.02 0.04 0.04 0.05 0.10 0.11 0.11 0.11 0.10 0.09 0.07 0.06 0.06 0.06 0.06 0.05 0.04 0.03 0.03 0.03 0.03 0.03 0.03 0.04 0.03 0.03 0.03 0.03 0.03 0.06 0.08 0.08 0.08 0.08 0.08 0.09 0.09 0.08 0.07 0.06
0.03 0.03 0.03 0.03 0.04 0.06 0.06 0.08 0.11 0.11 0.10 0.10 0.09 0.06 0.05 0.03 0.04 0.05 0.05 0.04 0.04 0.02 0.03 0.03 0.03 0.03 0.04 0.05 0.05 0.05 0.04 0.03 0.04 0.06 0.07 0.08 0.08 0.07 0.06 0.05 0.04 0.05 0.06
0.03 0.03 0.03 0.04 0.05 0.08 0.08 0.07 0.07 0.10 0.10 0.08 0.07 0.05 0.04 0.03 0.03 0.03 0.04 0.04 0.03 0.02 0.03 0.04 0.04 0.03 0.04 0.05 0.05 0.05 0.05 0.05 0.06 0.06 0.06 0.07 0.08 0.08 0.06 0.05 0.05 0.06 0.06
0.02 0.02 0.01 0.04 0.07 0.10 0.12 0.07 0.06 0.07 0.07 0.07 0.06 0.05 0.04 0.03 0.02 0.03 0.03 0.03 0.02 0.02 0.03 0.04 0.05 0.04 0.03 0.03 0.04 0.06 0.07 0.07 0.05 0.05 0.06 0.05 0.06 0.05 0.06 0.07 0.09 0.09 0.08
0.02 0.02 0.02 0.04 0.05 0.06 0.08 0.07 0.05 0.07 0.07 0.07 0.06 0.05 0.05 0.03 0.03 0.04 0.05 0.04 0.02 0.02 0.04 0.05 0.05 0.05 0.03 0.02 0.03 0.04 0.05 0.06 0.06 0.04 0.04 0.05 0.05 0.04 0.04 0.06 0.08 0.09 0.09
0.03 0.03 0.03 0.03 0.03 0.04 0.04 0.05 0.06 0.08 0.08 0.06 0.05 0.04 0.05 0.05 0.05 0.06 0.07 0.06 0.04 0.03 0.04 0.05 0.05 0.05 0.04 0.02 0.04 0.04 0.03 0.04 0.05 0.06 0.06 0.05 0.04 0.03 0.03 0.03 0.03 0.04 0.04
0.03 0.03 0.02 0.02 0.03 0.03 0.03 0.04 0.05 0.07 0.06 0.06 0.04 0.04 0.05 0.05 0.06 0.07 0.08 0.08 0.07 0.05 0.05 0.05 0.03 0.03 0.02 0.02 0.03 0.03 0.03 0.03 0.05 0.06 0.07 0.08 0.05 0.03 0.02 0.03 0.03 0.03 0.03
0.03 0.02 0.02 0.02 0.03 0.03 0.03 0.04 0.04 0.04 0.04 0.03 0.02 0.02 0.03 0.04 0.06 0.07 0.08 0.09 0.08 0.06 0.05 0.04 0.02 0.01 0.01 0.02 0.02 0.03 0.02 0.03 0.05 0.06 0.06 0.06 0.06 0.05 0.04 0.03 0.03 0.03 0.03
0.03 0.03 0.03 0.03 0.03 0.03 0.04 0.04 0.04 0.03 0.02 0.02 0.02 0.03 0.03 0.04 0.06 0.07 0.07 0.07 0.07 0.05 0.05 0.03 0.01 0.01 0.01 0.02 0.02 0.02 0.02 0.02 0.02 0.04 0.05 0.05 0.04 0.04 0.04 0.04 0.04 0.03 0.03
0.03 0.03 0.03 0.02 0.02 0.02 0.03 0.02 0.03 0.02 0.01 0.02 0.02 0.02 0.03 0.05 0.06 0.07 0.08 0.07 0.06 0.05 0.03 0.01 0.01 0.01 0.01 0.01 0.01 0.02 0.01 0.01 0.01 0.03 0.04 0.05 0.05 0.04 0.04 0.04 0.05 0.04 0.04
0.03 0.03 0.03 0.02 0.01 0.02 0.03 0.02 0.02 0.02 0.02 0.02 0.02 0.03 0.04 0.04 0.05 0.06 0.08 0.07 0.04 0.03 0.02 0.01 0.01 0.01 0.01 0.02 0.02 0.02 0.02 0.02 0.01 0.02 0.02 0.03 0.04 0.05 0.04 0.04 0.05 0.05 0.06
0.02 0.02 0.02 0.02 0.01 0.02 0.02 0.02 0.02 0.02 0.01 0.02 0.02 0.02 0.02 0.02 0.02 0.02 0.03 0.03 0.03 0.02 0.02 0.01 0.01 0.01 0.01 0.01 0.01 0.01 0.01 0.01 0.01 0.01 0.02 0.02 0.03 0.04 0.04 0.03 0.03 0.04 0.06
0.01 0.02 0.01 0.01 0.01 0.02 0.02 0.01 0.02 0.02 0.02 0.02 0.01 0.01 0.01 0.01 0.01 0.02 0.02 0.03 0.03 0.02 0.02 0.02 0.01 0.01 0.01 0.01 0.01 0.02 0.01 0.01 0.01 0.02 0.02 0.02 0.02 0.02 0.03 0.04 0.04 0.03 0.03
0.01 0.02 0.02 0.02 0.01 0.02 0.02 0.02 0.02 0.02 0.03 0.02 0.02 0.01 0.01 0.01 0.02 0.02 0.02 0.03 0.03 0.02 0.02 0.02 0.01 0.01 0.01 0.01 0.01 0.01 0.01 0.01 0.01 0.01 0.02 0.02 0.02 0.02 0.03 0.05 0.06 0.04 0.02
0.02 0.02 0.03 0.02 0.02 0.02 0.03 0.02 0.03 0.03 0.02 0.02 0.03 0.03 0.03 0.02 0.02 0.02 0.02 0.02 0.02 0.02 0.02 0.02 0.01 0.01 0.01 0.01 0.01 0.01 0.01 0.01 0.01 0.02 0.02 0.02 0.02 0.02 0.02 0.03 0.04 0.04 0.03
0.03 0.03 0.03 0.03 0.02 0.02 0.03 0.03 0.03 0.03 0.02 0.02 0.02 0.02 0.03 0.04 0.04 0.03 0.02 0.02 0.01 0.01 0.01 0.01 0.01 0.01 0.01 0.01 0.01 0.02 0.02 0.01 0.02 0.02 0.02 0.02 0.02 0.02 0.02 0.02 0.02 0.02 0.02
0.04 0.04 0.03 0.03 0.03 0.03 0.04 0.04 0.03 0.03 0.03 0.02 0.02 0.03 0.02 0.02 0.03 0.03 0.02 0.02 0.01 0.01 0.01 0.01 0.01 0.01 0.00 0.01 0.01 0.02 0.01 0.02 0.01 0.02 0.02 0.02 0.02 0.02 0.02 0.02 0.02 0.02 0.02
0.05 0.05 0.05 0.03 0.03 0.02 0.03 0.04 0.05 0.04 0.04 0.03 0.03 0.03 0.03 0.03 0.02 0.02 0.01 0.01 0.01 0.01 0.01 0.01 0.01 0.01 0.01 0.01 0.01 0.02 0.01 0.02 0.02 0.02 0.02 0.02 0.02 0.03 0.03 0.03 0.03 0.03 0.02
MSLP
1017.16 1017.25 1017.28 1017.27 1017.24 1017.21 1017.18 1017.16 1017.13 1017.07 1016.96 1016.81 1016.60 1016.35 1016.09 1015.83 1015.59 1015.38 1015.21 1015.08 1014.98 1014.90 1014.84 1014.79 1014.76 1014.75 1014.78 1014.82 1014.90 1014.99 1015.08 1015.17 1015.24 1015.28 1015.28 1015.26 1015.22 1015.17 1015.13 1015.11 1015.11 1015.15 1015.23
1017.47 1017.60 1017.65 1017.64 1017.59 1017.52 1017.44 1017.36 1017.26 1017.15 1017.01 1016.83 1016.60 1016.35 1016.07 1015.79 1015.51 1015.26 1015.04 1014.86 1014.72 1014.62 1014.56 1014.52 1014.51 1014.53 1014.57 1014.62 1014.68 1014.74 1014.80 1014.84 1014.85 1014.84 1014.80 1014.74 1014.66 1014.58 1014.52 1014.47 1014.47 1014.52 1014.62
1017.65 1017.82 1017.91 1017.92 1017.88 1017.80 1017.69 1017.56 1017.42 1017.26 1017.09 1016.88 1016.65 1016.38 1016.09 1015.78 1015.47 1015.17 1014.90 1014.67 1014.48 1014.35 1014.27 1014.24 1014.25 1014.30 1014.37 1014.44 1014.51 1014.56 1014.59 1014.59 1014.56 1014.49 1014.40 1014.28 1014.16 1014.04 1013.94 1013.88 1013.87 1013.93 1014.06
1017.68 1017.89 1018.02 1018.08 1018.07 1018.00 1017.88 1017.73 1017.56 1017.38 1017.18 1016.96 1016.72 1016.46 1016.16 1015.84 1015.50 1015.16 1014.83 1014.53 1014.29 1014.12 1014.01 1013.98 1014.01 1014.08 1014.18 1014.29 1014.38 1014.45 1014.47 1014.45 1014.37 1014.25 1014.10 1013.93 1013.75 1013.59 1013.45 1013.37 1013.36 1013.42 1013.57
1017.57 1017.82 1018.00 1018.11 1018.14 1018.09 1017.99 1017.84 1017.66 1017.47 1017.27 1017.05 1016.83 1016.58 1016.29 1015.97 1015.61 1015.23 1014.86 1014.50 1014.20 1013.97 1013.82 1013.77 1013.80 1013.90 1014.03 1014.18 1014.30 1014.39 1014.42 1014.39 1014.30 1014.14 1013.95 1013.72 1013.49 1013.28 1013.11 1013.00 1012.97 1013.04 1013.20
1017.38 1017.64 1017.86 1018.01 1018.08 1018.08 1018.01 1017.88 1017.71 1017.52 1017.34 1017.15 1016.95 1016.73 1016.48 1016.18 1015.83 1015.43 1015.02 1014.61 1014.25 1013.95 1013.76 1013.67 1013.68 1013.78 1013.93 1014.11 1014.27 1014.39 1014.45 1014.43 1014.33 1014.16 1013.93 1013.67 1013.41 1013.15 1012.94 1012.81 1012.76 1012.81 1012.96
1017.15 1017.41 1017.64 1017.82 1017.94 1017.98 1017.94 1017.84 1017.69 1017.54 1017.38 1017.23 1017.08 1016.92 1016.72 1016.47 1016.14 1015.76 1015.32 1014.87 1014.45 1014.09 1013.83 1013.69 1013.66 1013.74 1013.89 1014.08 1014.27 1014.42 1014.51 1014.52 1014.44 1014.28 1014.05 1013.78 1013.49 1013.21 1012.97 1012.81 1012.73 1012.76 1012.88
1016.95 1017.17 1017.40 1017.60 1017.74 1017.81 1017.81 1017.74 1017.63 1017.51 1017.39 1017.30 1017.21 1017.12 1016.99 1016.80 1016.53 1016.17 1015.74 1015.27 1014.80 1014.38 1014.05 1013.83 1013.74 1013.78 1013.90 1014.09 1014.29 1014.46 1014.59 1014.64 1014.59 1014.46 1014.26 1014.00 1013.72 1013.43 1013.18 1012.99 1012.89 1012.88 1012.95
1016.81 1016.99 1017.19 1017.38 1017.53 1017.62 1017.64 1017.60 1017.52 1017.44 1017.37 1017.33 1017.31 1017.29 1017.25 1017.13 1016.93 1016.61 1016.21 1015.73 1015.23 1014.76 1014.36 1014.07 1013.90 1013.87 1013.95 1014.10 1014.29 1014.48 1014.63 1014.72 1014.73 1014.65 1014.50 1014.29 1014.04 1013.77 1013.53 1013.33 1013.19 1013.14 1013.17
1016.72 1016.85 1017.02 1017.19 1017.33 1017.43 1017.45 1017.43 1017.38 1017.32 1017.29 1017.30 1017.34 1017.39 1017.41 1017.38 1017.24 1016.99 1016.62 1016.16 1015.66 1015.15 1014.69 1014.32 1014.08 1013.97 1013.97 1014.08 1014.24 1014.42 1014.59 1014.72 1014.78 1014.77 1014.69 1014.55 1014.36 1014.14 1013.92 1013.73 1013.59 1013.50 1013.48
1016.65 1016.73 1016.86 1017.01 1017.13 1017.21 1017.24 1017.22 1017.17 1017.13 1017.12 1017.16 1017.24 1017.34 1017.43 1017.46 1017.40 1017.21 1016.89 1016.47 1015.97 1015.45 1014.96 1014.53 1014.22 1014.03 1013.96 1013.99 1014.11 1014.26 1014.43 1014.59 1014.71 1014.77 1014.77 1014.71 1014.61 1014.46 1014.29 1014.13 1013.99 1013.89 1013.83
1016.53 1016.58 1016.68 1016.79 1016.89 1016.95 1016.96 1016.93 1016.88 1016.83 1016.83 1016.88 1016.98 1017.12 1017.24 1017.33 1017.32 1017.20 1016.95 1016.57 1016.11 1015.61 1015.10 1014.65 1014.28 1014.02 1013.88 1013.84 1013.89 1014.01 1014.16 1014.33 1014.48 1014.61 1014.69 1014.73 1014.71 1014.65 1014.55 1014.44 1014.32 1014.22 1014.15
1016.29 1016.33 1016.41 1016.50 1016.58 1016.61 1016.60 1016.55 1016.48 1016.42 1016.40 1016.45 1016.54 1016.69 1016.84 1016.96 1017.00 1016.94 1016.75 1016.45 1016.04 1015.58 1015.10 1014.64 1014.25 1013.94 1013.73 1013.63 1013.61 1013.67 1013.79 1013.95 1014.12 1014.29 1014.44 1014.55 1014.63 1014.66 1014.64 1014.59 1014.52 1014.44 1014.37
1015.91 1015.95 1016.02 1016.09 1016.14 1016.16 1016.12 1016.05 1015.96 1015.88 1015.84 1015.86 1015.95 1016.08 1016.23 1016.37 1016.45 1016.45 1016.33 1016.11 1015.79 1015.40 1014.97 1014.55 1014.16 1013.83 1013.57 1013.40 1013.32 1013.31 1013.38 1013.50 1013.66 1013.85 1014.04 1014.22 1014.37 1014.47 1014.54 1014.56 1014.54 1014.50 1014.45
1015.37 1015.42 1015.49 1015.55 1015.59 1015.58 1015.53 1015.44 1015.34 1015.24 1015.17 1015.17 1015.23 1015.34 1015.49 1015.64 1015.75 1015.80 1015.76 1015.63 1015.40 1015.10 1014.76 1014.39 1014.04 1013.71 1013.43 1013.21 1013.06 1012.99 1012.99 1013.05 1013.18 1013.35 1013.55 1013.76 1013.96 1014.13 1014.26 1014.34 1014.39 1014.40 1014.39
1014.71 1014.78 1014.85 1014.91 1014.94 1014.92 1014.86 1014.76 1014.64 1014.53 1014.45 1014.43 1014.47 1014.56 1014.70 1014.85 1014.99 1015.09 1015.12 1015.08 1014.96 1014.76 1014.52 1014.23 1013.93 1013.63 1013.35 1013.10 1012.90 1012.75 1012.67 1012.67 1012.73 1012.86 1013.03 1013.24 1013.45 1013.66 1013.83 1013.97 1014.07 1014.14 1014.18
1014.00 1014.08 1014.15 1014.21 1014.23 1014.21 1014.15 1014.05 1013.94 1013.83 1013.74 1013.71 1013.73 1013.82 1013.95 1014.10 1014.26 1014.40 1014.50 1014.54 1014.52 1014.43 1014.29 1014.09 1013.86 1013.61 1013.34 1013.07 1012.83 1012.62 1012.47 1012.38 1012.37 1012.43 1012.55 1012.72 1012.92 1013.12 1013.32 1013.49 1013.63 1013.75 1013.85
1013.30 1013.38 1013.45 1013.50 1013.53 1013.51 1013.46 1013.38 1013.27 1013.17 1013.10 1013.07 1013.09 1013.16 1013.29 1013.45 1013.62 1013.79 1013.94 1014.05 1014.11 1014.12 1014.07 1013.96 1013.81 1013.60 1013.36 1013.10 1012.83 1012.58 1012.37 1012.21 1012.11 1012.09 1012.14 1012.24 1012.39 1012.56 1012.75 1012.93 1013.09 1013.25 1013.39
1012.65 1012.73 1012.80 1012.85 1012.88 1012.87 1012.83 1012.76 1012.69 1012.61 1012.56 1012.54 1012.56 1012.64 1012.76 1012.92 1013.10 1013.28 1013.46 1013.62 1013.74 1013.81 1013.84 1013.80 1013.71 1013.56 1013.36 1013.11 1012.84 1012.57 1012.31 1012.09 1011.92 1011.82 1011.78 1011.81 1011.89 1012.01 1012.15 1012.31 1012.48 1012.65 1012.83
1012.08 1012.16 1012.22 1012.27 1012.30 1012.30 1012.28 1012.24 1012.19 1012.15 1012.12 1012.12 1012.16 1012.24 1012.35 1012.50 1012.67 1012.86 1013.04 1013.21 1013.36 1013.47 1013.54 1013.56 1013.52 1013.41 1013.25 1013.03 1012.77 1012.49 1012.22 1011.95 1011.73 1011.56 1011.45 1011.39 1011.39 1011.44 1011.52 1011.64 1011.78 1011.95 1012.15
1011.56 1011.64 1011.70 1011.75 1011.79 1011.81 1011.81 1011.80 1011.78 1011.77 1011.77 1011.79 1011.85 1011.93 1012.04 1012.17 1012.32 1012.48 1012.64 1012.80 1012.94 1013.06 1013.14 1013.18 1013.17 1013.10 1012.97 1012.79 1012.56 1012.29 1012.02 1011.74 1011.49 1011.27 1011.09 1010.96 1010.88 1010.84 1010.85 1010.90 1011.01 1011.15 1011.35
1011.07 1011.16 1011.23 1011.29 1011.34 1011.37 1011.39 1011.41 1011.43 1011.45 1011.49 1011.53 1011.60 1011.68 1011.78 1011.90 1012.01 1012.14 1012.26 1012.38 1012.48 1012.58 1012.64 1012.68 1012.67 1012.62 1012.51 1012.36 1012.16 1011.93 1011.67 1011.40 1011.14 1010.89 1010.67 1010.47 1010.32 1010.20 1010.13 1010.11 1010.16 1010.26 1010.44
1010.57 1010.68 1010.77 1010.85 1010.91 1010.97 1011.02 1011.07 1011.12 1011.17 1011.24 1011.31 1011.40 1011.48 1011.57 1011.66 1011.74 1011.82 1011.89 1011.95 1012.01 1012.05 1012.08 1012.08 1012.06 1012.00 1011.91 1011.78 1011.61 1011.41 1011.18 1010.94 1010.68 1010.42 1010.17 1009.93 1009.71 1009.52 1009.38 1009.28 1009.26 1009.31 1009.45
1010.05 1010.19 1010.31 1010.42 1010.50 1010.59 1010.66 1010.75 1010.83 1010.92 1011.02 1011.13 1011.23 1011.32 1011.41 1011.48 1011.53 1011.56 1011.58 1011.58 1011.58 1011.56 1011.53 1011.49 1011.44 1011.36 1011.27 1011.15 1011.00 1010.82 1010.62 1010.40 1010.16 1009.90 1009.63 1009.36 1009.10 1008.85 1008.63 1008.47 1008.37 1008.36 1008.45
1009.53 1009.72 1009.87 1010.01 1010.12 1010.23 1010.34 1010.46 1010.58 1010.71 1010.84 1010.98 1011.10 1011.22 1011.31 1011.37 1011.40 1011.40 1011.38 1011.33 1011.27 1011.20 1011.12 1011.03 1010.93 1010.83 1010.72 1010.59 1010.44 1010.28 1010.10 1009.89 1009.66 1009.41 1009.13 1008.84 1008.54 1008.24 1007.97 1007.74 1007.57 1007.49 1007.52
1009.05 1009.29 1009.48 1009.65 1009.79 1009.93 1010.07 1010.21 1010.37 1010.53 1010.71 1010.88 1011.04 1011.18 1011.28 1011.36 1011.39 1011.38 1011.33 1011.26 1011.16 1011.05 1010.92 1010.79 1010.66 1010.52 1010.39 1010.24 1010.08 1009.91 1009.73 1009.52 1009.29 1009.03 1008.75 1008.44 1008.11 1007.78 1007.46 1007.17 1006.94 1006.80 1006.75
Thickness
5766 5766 5765 5765 5765 5764 5763 5763 5762 5762 5761 5761 5761 5761 5761 5760 5760 5760 5760 5760 5760 5759 5758 5757 5756 5755 5754 5753 5751 5749 5747 5746 5745 5744 5743 5741 5740 5739 5738 5737 5736 5735 5733
5766 5765 5764 5764 5764 5763 5763 5762 5761 5761 5760 5760 5760 5760 5760 5760 5760 5760 5759 5759 5760 5759 5758 5757 5756 5755 5754 5753 5751 5749 5747 5747 5745 5744 5743 5742 5741 5740 5739 5738 5737 5736 5734
5764 5763 5763 5763 5762 5762 5762 5761 5761 5760 5760 5760 5759 5759 5759 5759 5759 5759 5759 5759 5759 5758 5758 5757 5756 5755 5754 5753 5751 5749 5748 5747 5746 5745 5744 5743 5741 5740 5739 5738 5737 5736 5735
5763 5763 5762 5761 5761 5761 5761 5760 5759 5758 5758 5758 5758 5758 5758 5758 5758 5759 5759 5758 5758 5757 5757 5756 5755 5755 5754 5753 5752 5750 5749 5748 5746 5745 5744 5743 5742 5741 5740 5739 5737 5736 5735
5763 5762 5761 5760 5760 5760 5759 5759 5758 5756 5755 5755 5755 5756 5756 5756 5757 5757 5758 5757 5757 5756 5755 5755 5754 5754 5753 5753 5752 5751 5750 5749 5747 5746 5745 5743 5742 5741 5740 5739 5738 5736 5735
5763 5762 5761 5760 5759 5758 5757 5757 5755 5754 5753 5752 5752 5753 5753 5754 5755 5755 5755 5755 5755 5754 5753 5753 5752 5752 5752 5751 5751 5751 5750 5749 5747 5746 5745 5744 5742 5741 5740 5739 5738 5736 5734
5763 5762 5760 5759 5758 5756 5756 5754 5753 5751 5749 5749 5747 5746 5748 5751 5752 5752 5752 5752 5752 5751 5751 5751 5750 5750 5750 5750 5750 5750 5749 5747 5746 5745 5744 5743 5742 5741 5740 5739 5737 5735 5734
5762 5761 5759 5758 5757 5755 5753 5752 5750 5748 5746 5746 5742 5739 5737 5740 5745 5749 5748 5748 5748 5748 5748 5749 5748 5748 5747 5747 5748 5748 5747 5746 5745 5744 5743 5742 5741 5739 5738 5737 5736 5734 5733
5762 5761 5759 5758 5756 5755 5752 5750 5749 5746 5743 5742 5741 5737 5732 5730 5735 5741 5743 5744 5744 5744 5745 5745 5745 5745 5745 5745 5745 5745 5745 5744 5744 5743 5741 5740 5739 5738 5737 5735 5734 5733 5731
5762 5760 5759 5757 5755 5754 5752 5749 5747 5745 5742 5738 5737 5737 5736 5735 5730 5730 5736 5739 5740 5740 5741 5742 5742 5742 5742 5742 5742 5743 5743 5742 5742 5741 5740 5739 5738 5737 5736 5734 5733 5731 5730
5760 5759 5758 5756 5754 5752 5750 5748 5746 5744 5741 5738 5735 5734 5733 5732 5731 5727 5727 5731 5733 5736 5738 5738 5738 5739 5739 5739 5739 5740 5740 5740 5739 5739 5738 5737 5736 5735 5734 5732 5731 5730 5729
5758 5757 5756 5754 5752 5751 5749 5747 5745 5743 5740 5738 5735 5733 5730 5728 5726 5725 5723 5724 5726 5731 5733 5734 5734 5735 5735 5735 5735 5736 5736 5737 5737 5736 5735 5734 5733 5732 5731 5730 5728 5727 5727
5755 5755 5754 5752 5750 5749 5748 5746 5744 5741 5739 5736 5733 5731 5730 5728 5727 5724 5721 5721 5721 5725 5727 5730 5731 5731 5731 5731 5731 5731 5732 5732 5732 5732 5732 5730 5730 5729 5727 5726 5725 5724 5724
5754 5753 5751 5749 5747 5746 5745 5743 5741 5739 5737 5734 5732 5729 5728 5726 5725 5723 5720 5717 5716 5717 5720 5723 5726 5726 5726 5726 5727 5727 5727 5727 5727 5727 5727 5726 5726 5725 5724 5722 5722 5721 5720
5752 5751 5749 5746 5744 5743 5741 5739 5736 5735 5733 5731 5729 5726 5724 5723 5722 5721 5719 5716 5712 5709 5712 5716 5718 5720 5720 5721 5721 5721 5721 5721 5721 5722 5721 5721 5721 5720 5719 5718 5717 5716 5716
5749 5747 5745 5743 5741 5738 5737 5734 5732 5731 5729 5727 5725 5723 5720 5719 5718 5716 5715 5713 5711 5708 5706 5710 5711 5713 5714 5715 5716 5715 5715 5715 5715 5715 5715 5715 5715 5714 5714 5713 5712 5711 5710
5745 5743 5741 5739 5737 5734 5732 5730 5728 5726 5724 5722 5720 5718 5716 5715 5713 5711 5710 5708 5707 5705 5702 5705 5706 5707 5707 5708 5709 5709 5709 5709 5709 5709 5709 5709 5708 5708 5708 5707 5707 5706 5705
5741 5739 5737 5735 5733 5730 5728 5726 5723 5721 5719 5717 5715 5712 5711 5709 5707 5706 5704 5703 5702 5701 5698 5697 5699 5699 5700 5701 5701 5702 5702 5702 5702 5703 5703 5703 5702 5702 5702 5701 5701 5700 5700
5737 5735 5733 5730 5728 5726 5723 5721 5719 5716 5714 5712 5710 5707 5705 5703 5701 5700 5698 5697 5696 5696 5694 5692 5693 5693 5693 5694 5694 5694 5695 5694 5695 5696 5696 5695 5695 5695 5695 5695 5694 5694 5693
5732 5730 5728 5726 5723 5721 5718 5716 5713 5711 5708 5706 5704 5702 5701 5698 5696 5695 5693 5692 5691 5689 5688 5686 5686 5686 5686 5686 5686 5685 5685 5686 5686 5688 5688 5688 5688 5688 5688 5688 5687 5687 5686
5728 5725 5723 5720 5718 5716 5714 5711 5708 5706 5703 5700 5698 5697 5695 5694 5692 5690 5689 5687 5685 5683 5681 5680 5680 5679 5679 5678 5678 5677 5676 5677 5678 5679 5679 5680 5680 5680 5680 5680 5680 5680 5679
5722 5719 5717 5715 5713 5712 5710 5707 5704 5700 5698 5695 5692 5691 5689 5688 5687 5686 5684 5683 5681 5678 5676 5674 5673 5672 5673 5672 5671 5670 5668 5668 5669 5671 5670 5671 5672 5672 5672 5673 5673 5672 5672
5716 5714 5711 5709 5707 5706 5704 5701 5699 5695 5692 5689 5686 5685 5684 5683 5681 5679 5678 5677 5675 5674 5672 5669 5667 5667 5667 5666 5664 5662 5661 5661 5661 5663 5661 5663 5664 5664 5665 5665 5665 5664 5664
5710 5707 5705 5703 5701 5700 5698 5695 5692 5689 5686 5683 5680 5678 5676 5674 5673 5671 5670 5669 5668 5667 5666 5665 5663 5663 5662 5661 5658 5657 5655 5655 5655 5655 5654 5654 5656 5656 5658 5658 5658 5658 5657
5702 5700 5699 5697 5695 5693 5691 5688 5685 5681 5679 5676 5674 5671 5669 5668 5666 5664 5662 5661 5660 5660 5660 5659 5658 5657 5656 5655 5653 5651 5649 5647 5648 5649 5647 5646 5648 5648 5649 5651 5651 5650 5650
5694 5692 5690 5689 5687 5685 5683 5680 5676 5673 5670 5668 5666 5664 5662 5660 5658 5656 5655 5653 5652 5653 5652 5652 5651 5650 5649 5648 5647 5645 5644 5641 5641 5642 5642 5639 5640 5638 5640 5643 5642 5642 5641